Location: Newark
(48.0000°N, 67.0000°E)
Time: 18:50:40
(UTC+00:00)

CUBEBUG 2 - Visible Passes

Search period start: 10 April 2020 00:00
Search period end: 20 April 2020 00:00
Orbit: 586 x 698 km, 97.6° (Epoch: 09 April)

Date Brightness Start Highest point End Pass type
(mag) Time Alt. Az. Time Alt. Az. Time Alt. Az.
10 Apr ? 23:47:22 10° NNE 23:51:13 29° E 23:54:57 10° SSE visible
12 Apr ? 00:11:07 10° NNE 00:15:25 50° E 00:19:33 10° S visible
13 Apr ? 23:23:41 10° NE 23:26:34 17° E 23:29:25 10° SE visible
14 Apr ? 23:47:05 10° NNE 23:50:52 29° E 23:54:33 10° SSE visible
17 Apr ? 23:23:23 10° NE 23:26:13 17° E 23:29:00 10° SE visible
18 Apr ? 23:46:46 10° NNE 23:50:30 29° E 23:54:08 10° SSE visible
